Austin Bergstrom, TX

3:59 AM CDT on June 25, 2017 (GMT -0500)
Austin Bergstrom International

Weather History for KAUS - October, 2012

Change the Weather History Date:

Thursday, October 4, 2012

  Actual Average Record
Temperature  
Mean Temperature 76 °F 73 °F  
Max Temperature 90 °F 86 °F 95 °F (1956)
Min Temperature 62 °F 60 °F 45 °F (2010)
Degree Days  
Heating Degree Days 0 1  
Month to date heating degree days 0 3  
Since 1 July heating degree days 0 5  
Cooling Degree Days 11 8  
Month to date cooling degree days 23 34  
Year to date cooling degree days 2901 2562  
Growing Degree Days 28 (Base 50)    
Moisture  
Dew Point 67 °F    
Average Humidity 73    
Maximum Humidity 93    
Minimum Humidity 52    
Precipitation  
Precipitation 0.00 in 0.11 in 4.23 in (1959)
Month to date precipitation 0.00 0.39  
Year to date precipitation 33.46 25.64  
Snow  
Snow 0.00 in - - ()
Month to date snowfall 0.0  
Since 1 July snowfall 0.0  
Since 1 September snowfall 0.0  
Snow Depth 0.00 in    
Sea Level Pressure  
Sea Level Pressure 30.04 in    
Wind  
Wind Speed 8 mph (SSE)    
Max Wind Speed 20 mph    
Max Gust Speed 26 mph    
Visibility 10 miles    
Events      
T = Trace of Precipitation, MM = Missing Value Source: NWS Daily Summary

Daily Weather History Graph

Daily Weather History Graph

Search for Another Location

Airport or City:

Trip Planner

Search our weather history database for the weather conditions in past years. The results will help you decide how hot, cold, wet, or windy it might be!

Date:

Astronomy

Oct. 04, 2012 Rise Set
Actual Time 7:26 AM CDT 7:11 PM CDT
Civil Twilight 7:02 AM CDT 7:35 PM CDT
Nautical Twilight 6:34 AM CDT 8:03 PM CDT
Astronomical Twilight 6:06 AM CDT 8:31 PM CDT
Moon 10:07 PM CDT (10/4) 11:25 AM CDT (10/4)
Length of Visible Light 12h 33m
Length of Day
11h 45m
Waning Gibbous, 82% of the Moon is Illuminated
Oct 4
Waning Gibbous
Oct 8
Last Quarter
Oct 15
New
Oct 21
First Quarter
Oct 29
Full

Hourly Weather History & Observations

Time (CDT) Temp. Heat Index Dew Point Humidity Pressure Visibility Wind Dir Wind Speed Gust Speed Precip Events Conditions
12:53 AM 63.0 °F - 61.0 °F 93% 30.01 in 10.0 mi Calm Calm - N/A   Clear
1:53 AM 62.1 °F - 60.1 °F 93% 30.01 in 10.0 mi Calm Calm - N/A   Clear
2:20 AM 62.6 °F - 60.8 °F 94% 30.04 in 10.0 mi Calm Calm - N/A   Mostly Cloudy
2:53 AM 64.0 °F - 62.1 °F 93% 30.02 in 10.0 mi Calm Calm - N/A   Mostly Cloudy
3:53 AM 66.0 °F - 63.0 °F 90% 30.01 in 10.0 mi Calm Calm - N/A   Mostly Cloudy
4:33 AM 64.4 °F - 62.6 °F 94% 30.04 in 10.0 mi Calm Calm - N/A   Mostly Cloudy
4:53 AM 64.9 °F - 62.1 °F 90% 30.01 in 10.0 mi Calm Calm - N/A   Mostly Cloudy
5:53 AM 66.0 °F - 62.1 °F 87% 30.02 in 10.0 mi Calm Calm - N/A   Mostly Cloudy
6:53 AM 66.9 °F - 63.0 °F 87% 30.03 in 10.0 mi East 3.5 mph - N/A   Overcast
7:53 AM 68.0 °F - 64.0 °F 87% 30.04 in 10.0 mi Calm Calm - N/A   Overcast
8:53 AM 70.0 °F - 66.0 °F 87% 30.06 in 10.0 mi ESE 3.5 mph - N/A   Overcast
9:38 AM 73.4 °F - 68.0 °F 83% 30.09 in 10.0 mi SE 4.6 mph - N/A   Overcast
9:53 AM 73.9 °F - 69.1 °F 85% 30.06 in 10.0 mi SSE 5.8 mph - N/A   Overcast
10:28 AM 78.8 °F - 71.6 °F 78% 30.09 in 10.0 mi South 12.7 mph 20.7 mph N/A   Overcast
10:53 AM 80.1 °F 83.8 °F 72.0 °F 76% 30.06 in 10.0 mi SSE 16.1 mph 21.9 mph N/A   Mostly Cloudy
11:38 AM 82.4 °F 87.2 °F 71.6 °F 70% 30.09 in 10.0 mi SSE 15.0 mph 20.7 mph N/A   Mostly Cloudy
11:53 AM 82.9 °F 87.5 °F 71.1 °F 67% 30.06 in 10.0 mi South 15.0 mph 21.9 mph N/A   Mostly Cloudy
12:53 PM 87.1 °F 92.8 °F 71.1 °F 59% 30.05 in 10.0 mi SSE 19.6 mph 25.3 mph N/A   Mostly Cloudy
1:53 PM 87.1 °F 92.0 °F 70.0 °F 57% 30.03 in 10.0 mi SSE 13.8 mph - N/A   Scattered Clouds
2:53 PM 88.0 °F 92.9 °F 70.0 °F 55% 30.02 in 10.0 mi SSE 15.0 mph 19.6 mph N/A   Scattered Clouds
3:53 PM 89.1 °F 93.7 °F 69.1 °F 52% 30.01 in 10.0 mi SSE 11.5 mph - N/A   Scattered Clouds
4:53 PM 90.0 °F 94.5 °F 69.1 °F 50% 30.00 in 10.0 mi SSE 12.7 mph 19.6 mph N/A   Scattered Clouds
5:53 PM 88.0 °F 91.4 °F 68.0 °F 51% 30.00 in 10.0 mi SSE 12.7 mph 21.9 mph N/A   Scattered Clouds
6:53 PM 84.9 °F 89.4 °F 70.0 °F 61% 30.01 in 10.0 mi SSE 12.7 mph - N/A   Scattered Clouds
7:53 PM 82.0 °F 85.9 °F 70.0 °F 67% 30.03 in 10.0 mi SSE 12.7 mph - N/A   Partly Cloudy
8:53 PM 80.1 °F 82.9 °F 69.1 °F 69% 30.05 in 10.0 mi SSE 13.8 mph - N/A   Partly Cloudy
9:53 PM 77.0 °F - 70.0 °F 79% 30.07 in 10.0 mi SSE 9.2 mph - N/A   Partly Cloudy
10:53 PM 73.9 °F - 70.0 °F 87% 30.08 in 10.0 mi South 6.9 mph - N/A   Clear
11:53 PM 72.0 °F - 69.1 °F 91% 30.07 in 10.0 mi South 5.8 mph - N/A   Clear